This is the latest recevied weather packets stored in our database for station/object W4OTS. If no packets are shown the sender has not sent any weather packets the latest 10 day(s).
| Time | Temp. | Humidity | Pressure | Rain* | Wind** | Luminosity | Snow |
|---|---|---|---|---|---|---|---|
| 1777996998 | 22.78° C | 56% | 1018.6 hPa | 0 mm | - | 540 W/m² | - |
| 1777996694 | 22.78° C | 55% | 1018.7 hPa | 0 mm | - | 567 W/m² | - |
| 1777996390 | 22.78° C | 55% | 1018.6 hPa | 0 mm | - | 540 W/m² | - |
| 1777996086 | 22.78° C | 56% | 1018.4 hPa | 0 mm | - | 538 W/m² | - |
| 1777995783 | 22.78° C | 55% | 1018.8 hPa | 0 mm | - | 622 W/m² | - |
| 1777995479 | 22.22° C | 56% | 1019 hPa | 0 mm | - | 662 W/m² | - |
| 1777995176 | 21.67° C | 58% | 1018.9 hPa | 0 mm | - | 693 W/m² | - |
| 1777994874 | 21.67° C | 58% | 1019 hPa | 0 mm | - | 673 W/m² | - |
| 1777994570 | 22.22° C | 57% | 1018.7 hPa | 0 mm | - | 696 W/m² | - |
| 1777994270 | 21.67° C | 58% | 1018.8 hPa | 0 mm | - | 740 W/m² | - |
| 1777993968 | 21.67° C | 59% | 1018.6 hPa | 0 mm | - | 738 W/m² | - |
| 1777993665 | 21.67° C | 59% | 1018.8 hPa | 0 mm | - | 783 W/m² | - |
| 1777993362 | 21.67° C | 57% | 1018.7 hPa | 0 mm | - | 747 W/m² | - |
| 1777993062 | 21.11° C | 58% | 1018.7 hPa | 0 mm | - | 774 W/m² | - |
| 1777992760 | 20.56° C | 58% | 1018.8 hPa | 0 mm | - | 735 W/m² | - |
| 1777992458 | 20.56° C | 59% | 1018.5 hPa | 0 mm | - | 752 W/m² | - |
| 1777992156 | 20.56° C | 61% | 1018.7 hPa | 0 mm | - | 771 W/m² | - |
| 1777991852 | 20° C | 61% | 1018.7 hPa | 0 mm | - | 739 W/m² | - |
| 1777991550 | 20° C | 61% | 1018.6 hPa | 0 mm | - | 727 W/m² | - |
| 1777991247 | 20° C | 61% | 1018.7 hPa | 0 mm | - | 720 W/m² | - |
| 1777990944 | 20° C | 65% | 1018.7 hPa | 0 mm | - | 639 W/m² | - |
| 1777990642 | 19.44° C | 63% | 1018.7 hPa | 0 mm | - | 537 W/m² | - |
| 1777990339 | 19.44° C | 61% | 1018.7 hPa | 0 mm | - | 565 W/m² | - |
| 1777990034 | 19.44° C | 63% | 1018.5 hPa | 0 mm | - | 598 W/m² | - |
| 1777989732 | 19.44° C | 62% | 1018.4 hPa | 0 mm | - | 603 W/m² | - |
* Rain latest hour (hover to see other rain measurements)
** Current wind speed in m/s (hover to see current wind gust speed)